Current Version              Previous Version:    01  02  03  04  05  06  07  08  09  10  11  12  13  14  15  16  17  18  19  20  21  22  23  24  25  26  27  28  29  30  
   31  32  33  34  35  36  37  38  39  40  41  42  43  44  45  46  47  48  49  50  51  52  53  54  55  56  57  58  59  60  

[Printable]
695
ASUS44 KLUB 182101
RWRTX
WEST TEXAS WEATHER ROUNDUP
NATIONAL WEATHER SERVICE LUBBOCK TX
300 PM CST THU DEC 18 2014

NOTE: "FAIR" INDICATES FEW OR NO CLOUDS BELOW 12,000 FEET WITH NO
SIGNIFICANT WEATHER AND/OR OBSTRUCTIONS TO VISIBILITY.

TXZ004-006>008-010-012-014-016-OKZ002-182200-
TEXAS PANHANDLE/OKLAHOMA PANHANDLE

CITY           SKY/WX    TMP DP  RH WIND       PRES   REMARKS
AMARILLO       SUNNY     42  30  62 N7        30.07F
BORGER         CLOUDY    37  30  75 NW6       30.09F WCI  32
CANADIAN       CLOUDY    42  38  86 NW5       30.10S
DALHART        SUNNY     41  29  62 E5        30.06F
DUMAS          CLOUDY    34  29  81 N5        30.07F WCI  30
GUYMON         CLOUDY    37  31  78 E3        30.08F
HEREFORD       SUNNY     48  34  58 E5        30.05S
$$

TXZ026-029-035-045-048-182200-
SOUTHERN PANHANDLE/SOUTH PLAINS/ROLLING PLAINS

CITY           SKY/WX    TMP DP  RH WIND       PRES   REMARKS
CHILDRESS      CLOUDY    45  37  73 NE7       30.10F
SEMINOLE       MOSUNNY   60  29  30 CALM      30.06S
LUBBOCK        PTSUNNY   56  31  38 NE5       30.04F
$$

TXZ052-054-060>062-072-078-127-140-154-169-182200-
PERMIAN BASIN/CONCHO VALLEY/BIG COUNTRY/EDWARDS PLATEAU

CITY           SKY/WX    TMP DP  RH WIND       PRES   REMARKS
ABILENE        MOSUNNY   62  34  35 N7        30.06F
BIG SPRING     SUNNY     65  32  29 SW3       30.07S
BRADY          SUNNY     68  39  34 W3        30.03F
JUNCTION       PTSUNNY   68  39  34 N3        30.03F
MIDLAND        SUNNY     64  35  34 SW8       30.04F
ODESSA         SUNNY     63  32  31 S6        30.05F
SAN ANGELO     PTSUNNY   67  37  33 CALM      30.04F
WINK           SUNNY     64  31  28 SW3       30.03F
$$

TXZ055-058-074-075-080-082-182200-
FAR WEST/SOUTHWEST MOUNTAINS/TRANS PECOS

CITY           SKY/WX    TMP DP  RH WIND       PRES   REMARKS
ALPINE         PTSUNNY   61  30  30 SE6       30.11F
DRYDEN           N/A     63  44  50 E5        30.01F
EL PASO        CLOUDY    55  36  48 S10       30.06F
FORT STOCKTON  PTSUNNY   65  30  27 CALM      30.04F
MARFA          PTSUNNY   57  27  30 S12       30.09F
$$

TXZ014-016-019-021>030-083-182200
TEXAS TECH WEST TEXAS MESONET/TEXAS PANHANDLE/NORTHERN SOUTH PLAINS

CITY           SKY/WX    TMP DP  RH WIND       PRES   REMARKS
ABERNATHY 5ENE   N/A     53  33  47 SW1       30.06S
AMARILLO 9NNE    N/A     40  29  65 N2        30.07F
AMARILLO 7SSE    N/A     40  29  66 N5        30.07F
AMHERST 1NE      N/A     53  32  44 NE2       30.03S
BOOTLEG 11WNW    N/A     46  29  51 N3        30.04F
CANADIAN 6E      N/A     41  36  83 CALM      30.09R
CAPROCK CYN SP   N/A     41  37  84 NE6       30.09F
CHILDRESS 2NNE   N/A     44  38  80 N6        30.10S
CLARENDON 2WSW   N/A     39  34  82 N6        30.09S WCI  35
CLAUDE 12SW      N/A     37  31  79 NE3       30.07S
DIMMITT 2NE      N/A     43  33  69 NE5       30.04F
FLOYDADA 2NNE    N/A     45  36  69 N6        30.06S
FRIONA 2NE       N/A     46  33  59 NE7       30.04S
GOODLETT 3W      N/A     45  38  77 NW5       30.10S
HART 3N          N/A     43  35  72 NE5       30.05S
HEREFORD 2NW     N/A     47  32  56 NE3       30.04S
MCLEAN 1E        N/A     39  35  85 N6        30.07F WCI  34
MEMPHIS 1NE      N/A     44  37  76 N2        30.09F
MULESHOE 2SSW    N/A     57  26  29 W6        30.03S
OLTON 6S         N/A     49  34  55 NE8       30.04S
PALO DURO SP     N/A     42  30  62 NE6       30.08S
PAMPA 2E         N/A     36  32  86 NW5       30.08F WCI  32
PLAINVIEW 1S     N/A     45  36  72 NE6       30.05S
SILVERTON 7ESE   N/A     39  36  88 NE6       30.07F WCI  35
TULIA 2ENE       N/A     39  36  89 NE2       30.07S
TURKEY 2WSW      N/A     42  38  84 N6        30.08F
UMBARGER 3NNE    N/A     44  31  60 N7        30.05F
$$

TXZ033>036-039>041-045>048-182200
TEXAS TECH WEST TEXAS MESONET/SOUTH PLAINS

CITY           SKY/WX    TMP DP  RH WIND       PRES   REMARKS
AIKEN 3WSW       N/A     44  36  71 N5        30.07S
ANDREWS 2NE      N/A     63  31  29 S7        30.05
ANTON 6SSW       N/A     55  32  41 NE7       30.04R
DENVR CTY 7WNW   N/A     58  25  28 SW5       30.04F
GAIL 2ESE        N/A     62  32  32 E5        30.03F
LAMESA 2SE       N/A     64  29  26 SW6       30.04F
LEVELLAND 4S     N/A     60  20  21 W6        30.03S
LUBBOCK 3WNW     N/A     55  29  37 N2        30.05S
MORTON 1ENE      N/A     58  20  23 W12       30.03S
ODONNELL 1N      N/A     62  25  24 SW8       30.04F
PLAINS 3N        N/A     60  24  24 W9        30.04S
RALLS 1SE        N/A     53  33  46 NW6       30.06F
REESE CENTER     N/A     56  28  34 NE5       30.04S
SEAGRAVES 1SW    N/A     60  26  28 SW7       30.04S
SEMINOLE 2NNE    N/A     62  27  27 SW5       30.05S
SLATON 2NE       N/A     57  28  33 NW3       30.05S
SNYDER 3E        N/A     61  33  34 N5        30.05F
SUNDOWN 8SW      N/A     62  22  21 W13       30.03S
TAHOKA 3NNE      N/A     60  28  30 E2        30.04S
WOLFFORTH 6SSW   N/A     59  28  29 N2        30.03F
$$

TXZ031-032-036>038-042>044-182200-
TEXAS TECH WEST TEXAS MESONET/ROLLING PLAINS

CITY           SKY/WX    TMP DP  RH WIND       PRES   REMARKS
ASPERMONT 3NE    N/A     53  39  57 N7        30.08F
FLUVANNA 3WNW    N/A     60  30  32 NW3       30.05F
GRAHAM 5SSW      N/A     58  29  33 N2        30.04F
GUTHRIE 10WSW    N/A     50  38  63 N5        30.09R
HASKELL 1NW      N/A     50  39  65 N9        30.09S
KNOX CITY 3NW    N/A     49  39  69 N7        30.11S
LK A HENRY 1NW   N/A     61  32  34 NE9       30.04F
NORTHFIELD 1S    N/A     43  39  86 N3        30.10F
ODELL 4ENE       N/A     45  40  82 N7        30.11F
PADUCAH 10SW     N/A     44  38  78 N6        30.09F
POST 1NE         N/A     60  31  32 NE8       30.04F
RRING SPRGS 3N   N/A     43  38  83 N7        30.08S
SEYMOUR 3NW      N/A     45  41  85 N10       30.11R
SPUR 1W          N/A     52  36  54 NE7       30.07S
WHITE RVR 6NE    N/A     57  33  40 W5        30.05S
$$

TXZ052-054-060>062-072-078-127-140-154-169-182200-
TEXAS TECH WEST TEXAS MESONET/PERMIAN BASIN/
CONCHO VALLEY/BIG COUNTRY/EDWARDS PLATEAU

CITY           SKY/WX    TMP DP  RH WIND       PRES   REMARKS
COYANOSA 2N      N/A     66  32  27 W5        30.03F
JUNCTION 1SSW    N/A     67  44  43 NW3       30.04F
MERTZON 3NNE     N/A     67  37  33 W5        30.05F
SAN ANGELO 7NW   N/A     65  34  31 W3        30.04F
STRLNG CT 4WSW   N/A     65  34  32 NE2       30.05F
ST LAWRNCE 5SW   N/A     65  33  30 N3        30.04F
SWEETWATR 11SW   N/A     62  33  34 E1        30.06F
WALL 1E          N/A     65  35  33 N2        30.05F
$$

TXZ055-058-074-075-080-082-182200-
TEXAS TECH WEST TEXAS MESONET/FAR WEST/SOUTHWEST MOUNTAINS/TRANS PECOS

CITY           SKY/WX    TMP DP  RH WIND       PRES   REMARKS
PRSMN GAP BBNP   N/A     60  39  46 N12       30.03F
$$